K3TOW Weather Reports


Display with metric or nautical units.
time (UTC)temp
F
wind
direction
speed
MPH
gust
MPH
rain 1hr
in
rain 24hr
in
rain mn
in
humidity
%
barometer
mb
20260905060003 68 0 0.0 0.0 0.00 0.00 0.00 95 1010.4
20260905055003 68 0 0.0 0.0 0.00 0.00 0.00 95 1010.5
20260905054213 69 0 0.0 0.0 0.00 0.00 0.00 96 1010.6
20260905053003 69 0 0.0 0.0 0.00 0.00 0.00 96 1010.8
20260905052003 69 0 0.0 0.0 0.00 0.00 0.00 96 1011.0
20260905051003 69 0 0.0 0.0 0.00 0.00 0.00 95 1011.0
20260905050003 69 0 0.0 0.0 0.00 0.00 0.00 96 1011.0
20260905045213 69 0 0.0 0.0 0.00 0.00 0.00 96 1011.0
20260905044003 69 0 0.0 0.0 0.00 0.00 0.00 95 1011.2
20260905043003 69 0 0.0 0.0 0.00 0.00 0.00 95 1011.1
20260905042213 69 0 0.0 0.0 0.00 0.00 0.00 95 1011.1
20260905041003 69 0 0.0 0.0 0.00 0.00 0.00 95 1011.0
20260905040004 69 0 0.0 0.0 0.00 0.00 0.00 95 1010.8
20260905035003 69 0 0.0 0.0 0.00 0.00 0.00 95 1010.8
20260905034003 69 0 0.0 0.0 0.00 0.00 0.00 95 1010.7
20260905033003 69 0 0.0 0.0 0.00 0.00 0.00 95 1010.5
20260905032003 70 0 0.0 0.0 0.00 0.00 0.00 95 1010.4
20260905031003 70 0 0.0 0.0 0.00 0.00 0.00 95 1010.5
20260905030003 70 0 0.0 0.0 0.00 0.00 0.00 95 1010.5
20260905025003 70 0 0.0 0.0 0.00 0.00 0.00 95 1010.6
20260905024003 70 0 0.0 0.0 0.00 0.00 0.00 95 1010.6
20260905023003 70 0 0.0 0.0 0.00 0.00 0.00 95 1010.7
20260905022003 70 0 0.0 0.0 0.00 0.00 0.00 95 1010.7
20260905021003 70 0 0.0 0.0 0.00 0.00 0.00 95 1010.7
20260905020003 70 0 0.0 0.0 0.00 0.00 0.00 95 1010.7
20260905015212 70 0 0.0 0.0 0.00 0.00 0.00 95 1010.7
20260905014003 70 0 0.0 0.0 0.00 0.00 0.00 95 1010.7
20260905013003 70 0 0.0 0.0 0.00 0.00 0.00 95 1010.7
20260905012003 70 0 0.0 0.0 0.00 0.00 0.00 94 1010.5
20260905011003 71 0 0.0 0.0 0.00 0.00 0.00 94 1010.5
20260905010003 71 0 0.0 0.0 0.00 0.00 0.00 94 1010.4
20260905005003 71 0 0.0 0.0 0.00 0.00 0.00 94 1010.5
20260905004003 72 0 0.0 0.0 0.00 0.00 0.00 94 1010.5
20260905003003 72 0 0.0 0.0 0.00 0.00 0.00 94 1010.7
20260905002214 72 0 0.0 0.0 0.00 0.00 0.00 94 1010.5
20260905001003 73 0 0.0 0.0 0.00 0.00 0.00 93 1010.3
20260905000003 73 0 0.0 0.0 0.00 0.00 0.00 93 1010.1
20260904235003 73 0 0.0 0.0 0.00 0.00 0.00 93 1010.1
20260904234003 74 0 0.0 0.0 0.00 0.00 0.00 93 1010.1
20260904233003 74 0 0.0 0.0 0.00 0.00 0.00 92 1010.1
20260904232003 74 0 0.0 0.0 0.00 0.00 0.00 92 1009.8
20260904231213 74 0 0.0 0.0 0.00 0.00 0.00 91 1009.9
20260904230003 75 0 0.0 0.0 0.00 0.00 0.00 90 1009.8
20260904225213 75 0 0.0 0.0 0.00 0.00 0.00 90 1009.9
20260904224003 76 0 0.0 0.0 0.00 0.00 0.00 89 1009.9
20260904223003 76 0 0.0 0.0 0.00 0.00 0.00 87 1009.8
20260904222003 77 0 0.0 0.0 0.00 0.00 0.00 85 1009.9
20260904221213 77 0 0.0 0.0 0.00 0.00 0.00 85 1010.0
20260904220213 78 0 0.0 0.0 0.00 0.00 0.00 85 1010.2
20260904215003 79 0 0.0 0.0 0.00 0.00 0.00 82 1010.2
20260904214003 79 0 0.0 0.0 0.00 0.00 0.00 82 1010.2
20260904213003 79 0 0.0 0.0 0.00 0.00 0.00 80 1010.2
20260904212003 80 0 0.0 0.0 0.00 0.00 0.00 77 1010.0
20260904211212 80 53 0.0 2.0 0.00 0.00 0.00 75 1010.0
20260904210003 80 64 0.0 2.0 0.00 0.00 0.00 74 1010.0
20260904205003 80 295 1.0 2.0 0.00 0.00 0.00 71 1009.9
20260904204003 80 280 2.0 5.0 0.00 0.00 0.00 71 1010.0
20260904203003 81 297 2.0 6.0 0.00 0.00 0.00 69 1009.9
20260904202003 82 343 1.0 4.0 0.00 0.00 0.00 72 1010.0
20260904201003 81 58 1.0 6.0 0.00 0.00 0.00 71 1010.1
20260904200003 81 64 1.0 4.0 0.00 0.00 0.00 73 1010.3
20260904195003 81 29 1.0 4.0 0.00 0.00 0.00 73 1010.5
20260904194214 81 27 1.0 4.0 0.00 0.00 0.00 75 1010.6
20260904193003 81 55 1.0 4.0 0.00 0.00 0.00 74 1010.8
20260904192003 80 30 1.0 4.0 0.00 0.00 0.00 74 1010.7
20260904191214 79 36 1.0 4.0 0.00 0.00 0.00 75 1010.8
20260904190214 79 99 0.0 1.0 0.00 0.00 0.00 83 1010.9
20260904185213 80 0 0.0 0.0 0.00 0.00 0.00 81 1011.1
20260904184003 80 75 1.0 4.0 0.00 0.00 0.00 76 1011.2
20260904183003 80 11 1.0 6.0 0.00 0.00 0.00 73 1011.5
20260904182003 80 326 2.0 4.0 0.00 0.00 0.00 72 1011.4
20260904181003 80 89 1.0 3.0 0.00 0.00 0.00 76 1011.4
20260904180003 80 52 1.0 4.0 0.00 0.00 0.00 74 1011.5
20260904175003 80 354 0.0 3.0 0.00 0.00 0.00 74 1011.5
20260904174003 80 315 1.0 5.0 0.00 0.00 0.00 74 1011.5
20260904173003 80 295 1.0 8.0 0.00 0.00 0.00 75 1011.4
20260904172003 79 279 1.0 7.0 0.00 0.00 0.00 76 1011.5
20260904171003 79 282 1.0 7.0 0.00 0.00 0.00 76 1011.7
20260904170213 79 287 0.0 3.0 0.00 0.00 0.00 78 1011.7
20260904165213 78 314 1.0 3.0 0.00 0.00 0.00 79 1011.6
20260904164213 78 241 0.0 2.0 0.00 0.00 0.00 83 1011.6
20260904163003 78 238 0.0 2.0 0.00 0.00 0.00 84 1011.7
20260904162003 78 237 0.0 1.0 0.00 0.00 0.00 88 1011.5
20260904161003 78 237 0.0 1.0 0.00 0.00 0.00 85 1011.7
20260904160003 77 263 0.0 2.0 0.00 0.00 0.00 85 1011.8
20260904155003 77 272 1.0 4.0 0.00 0.00 0.00 83 1011.9
20260904154003 76 257 1.0 3.0 0.00 0.00 0.00 85 1011.8
20260904153003 76 0 0.0 0.0 0.00 0.00 0.00 91 1011.8
20260904152003 76 304 0.0 3.0 0.00 0.00 0.00 89 1011.7
20260904151212 75 304 0.0 3.0 0.00 0.00 0.00 89 1011.8
20260904150003 75 0 0.0 0.0 0.00 0.00 0.00 93 1011.8
20260904145003 75 0 0.0 0.0 0.00 0.00 0.00 92 1011.9
20260904144003 75 0 0.0 0.0 0.00 0.00 0.00 91 1012.1
20260904143003 75 0 0.0 0.0 0.00 0.00 0.00 91 1012.3
20260904142003 74 0 0.0 0.0 0.00 0.00 0.00 92 1012.2
20260904141003 74 0 0.0 0.0 0.00 0.00 0.00 94 1012.1
20260904140003 73 0 0.0 0.0 0.00 0.00 0.00 94 1011.8
20260904135003 73 0 0.0 0.0 0.00 0.00 0.00 94 1012.0
20260904134003 72 0 0.0 0.0 0.00 0.00 0.00 94 1011.9
20260904133003 72 0 0.0 0.0 0.00 0.00 0.00 96 1012.1
20260904132003 71 0 0.0 0.0 0.00 0.00 0.00 97 1011.8
20260904131003 71 0 0.0 0.0 0.00 0.00 0.00 97 1011.8
20260904130004 71 0 0.0 0.0 0.00 0.00 0.00 97 1011.8
20260904125003 71 0 0.0 0.0 0.00 0.00 0.00 98 1011.9
20260904124003 70 0 0.0 0.0 0.00 0.00 0.00 98 1012.1
20260904123003 70 0 0.0 0.0 0.00 0.00 0.00 98 1012.1
20260904122213 70 0 0.0 0.0 0.00 0.00 0.00 98 1011.9
20260904121003 70 0 0.0 0.0 0.00 0.00 0.00 97 1012.2
20260904120003 70 0 0.0 0.0 0.00 0.00 0.00 98 1012.1
20260904115003 69 0 0.0 0.0 0.00 0.00 0.00 98 1012.1
20260904114213 69 0 0.0 0.0 0.00 0.00 0.00 97 1012.1
20260904113003 69 0 0.0 0.0 0.00 0.00 0.00 97 1012.0
20260904112213 68 0 0.0 0.0 0.00 0.00 0.00 97 1012.1
20260904111003 69 0 0.0 0.0 0.00 0.00 0.00 97 1011.8
20260904110003 69 0 0.0 0.0 0.00 0.00 0.00 98 1011.6
20260904105003 69 0 0.0 0.0 0.00 0.00 0.00 97 1011.6
20260904104003 68 0 0.0 0.0 0.00 0.00 0.00 98 1011.6
20260904103003 68 0 0.0 0.0 0.00 0.00 0.00 97 1011.3
20260904102003 68 0 0.0 0.0 0.00 0.00 0.00 97 1011.3
20260904101003 68 0 0.0 0.0 0.00 0.00 0.00 97 1011.3
20260904100004 68 0 0.0 0.0 0.00 0.00 0.00 97 1011.4
20260904095003 68 0 0.0 0.0 0.00 0.00 0.00 97 1011.3
20260904094003 68 0 0.0 0.0 0.00 0.00 0.00 97 1011.4
20260904093004 68 0 0.0 0.0 0.00 0.01 0.00 97 1011.4
20260904092214 68 0 0.0 0.0 0.00 0.01 0.00 97 1011.3
20260904091003 68 0 0.0 0.0 0.00 0.01 0.00 97 1011.2
20260904090003 68 0 0.0 0.0 0.00 0.02 0.00 97 1011.2
20260904085003 68 0 0.0 0.0 0.00 0.02 0.00 97 1011.1
20260904084003 68 0 0.0 0.0 0.00 0.02 0.00 96 1011.1
20260904083004 68 0 0.0 0.0 0.00 0.02 0.00 96 1011.0
20260904082003 68 0 0.0 0.0 0.00 0.02 0.00 96 1010.9
20260904081003 69 0 0.0 0.0 0.00 0.02 0.00 96 1010.8
20260904080003 69 0 0.0 0.0 0.00 0.02 0.00 97 1010.8
20260904075003 69 0 0.0 0.0 0.00 0.02 0.00 96 1010.7
20260904074213 69 0 0.0 0.0 0.00 0.02 0.00 96 1010.8
20260904073003 69 0 0.0 0.0 0.00 0.02 0.00 96 1010.5
20260904072213 69 0 0.0 0.0 0.00 0.02 0.00 96 1010.4
20260904071003 69 0 0.0 0.0 0.00 0.02 0.00 96 1010.2
20260904070003 69 0 0.0 0.0 0.00 0.02 0.00 96 1010.1
20260904065003 69 0 0.0 0.0 0.00 0.03 0.00 96 1009.9
20260904064003 69 0 0.0 0.0 0.00 0.04 0.00 96 1010.2
20260904063003 69 0 0.0 0.0 0.00 0.06 0.00 96 1010.2
20260904062003 70 0 0.0 0.0 0.00 0.09 0.00 96 1010.1